Location: Bermeries
(50.2863°N, 3.7551°E)
Time: 10:46:18
(UTC+00:00)

Meteor 1-4 Rocket - Pass Details

Date: 23 May 2024
Orbit: 359 x 380 km, 81.2° (Epoch: 14 June)

Event Time Altitude Azimuth Distance (km) Brightness Sun altitude
Exits shadow 00:55:34 28° 123° (ESE) 715 3.2 -17.2°
Maximum altitude 00:56:12 32° 95° (E) 657 3.3 -17.2°
Drops below altitude 10° 00:58:51 10° 31° (NNE) 1,357 6.1 -17.1°
Sets 01:00:57 0° 21° (NNE) 2,213 7.7 -16.9°
